{"data":{"norad_id":62052,"intl_designator":"2024-216W","name":"STARLINK-32495","alt_names":[],"object_type":"PAYLOAD","status":"ACTIVE","operator":null,"country":"US","launch_date":"2024-11-21","launch_site_code":"AFETR","launch_vehicle":null,"mission":null,"orbit_class":"UNKNOWN","rcs_meters":null,"size_class":null,"mass_kg":null,"dimensions":null,"purposes":["comms"],"wikipedia_slug":null,"has_3d_model":false,"image_url":null,"decayed_at":null,"tle_current":{"epoch":"2026-05-25T03:55:20.407296Z","epoch_age_seconds":56799,"freshness":"FRESH","line1":"1 62052U 24216W   26145.16343064  .00015092  00000+0  55692-3 0  9991","line2":"2 62052  42.9980 191.1544 0000379 344.9146  15.1695 15.27574978 85492","mean_motion":15.27574978,"eccentricity":3.79e-5,"inclination_deg":42.998,"raan_deg":191.1544,"arg_perigee_deg":344.9146,"mean_anomaly_deg":15.1695,"bstar":0.00055692,"rev_number":8549,"period_min":94.26705862159,"perigee_km":482.80409423254,"apogee_km":483.32417327848,"semimajor_km":6861.2011337555,"source":"CELESTRAK","updated_at":"2026-05-25T13:38:19.528253Z"}}}